Find Starlink 2241

NORAD ID: 48586 Int'l Des: 2021-041 Owner: SPXS Country: US Constellation: starlink operational
LEOCIRCULARSTARLINK_TYPE

Live Position

Loading 3D Globe...

About Starlink 2241

Description loading...

Upcoming Passes

Passes for default location (London). Set your location on the main map for personalized predictions.

Altitude History

Loading altitude history...

Two-Line Element Set

1 48586U 21041AK 26106.62451108 -.00000118 00000-0 10954-4 0 9995
2 48586 53.0544 331.3215 0001545 91.4825 268.6341 15.06401859270778
Epoch: Apr 16, 2026 • Age: 6 hours

Current Status

Altitude 562.9 km
Velocity 7.58 km/s
Sub-Earth Point -43.83°S, 122.88°E
Launch Date May 15, 2021
Age 4.9 years
Type internet

Technical Details

Classification Payload
Mass 260.00 kg
Dry Mass 248.00 kg
Total Mass 260.00 kg
Length 0.20 m
Diameter 2.80 m
Span 9.00 m
Shape Box + pan
Manufacturer SPXS
Bus Type Starlink
Phase Status In Orbit
Owner/State SPXS/US

Most Searched